Calgary International Airport

Airport
ICAO code: 
CYYC
IATA Code: 
YYC
Summary
ICAO Region: 
NAM
Territory: 
Location: 
Calgary, Alberta
Serving: 
Calgary
Elevation: 
3557 ft
Coordinates: 
Aerial View: 
51° 7' 6.724" N, 114° 1' 14.487" W
Airport LOS: 
Parallel Runway Operation
Metar
Observation
CYYC 170100Z 22005KT 10SM FEW120 FEW180 BKN200 BKN280 00/M05 A2969 RMK AC1AC2CC4CI1 AC TR SLP103
Station
Calgary International, Alta.
Date/Time
2022-01-17 01:00:00
Wind direction
220°
Wind speed
05 kts
Lowest cloud amount
few clouds
Temperature
0°C
Dew point
-5°C
Humidity
68%
Weather condition
n/a

Description

International airport serving Calgary, Alberta.

Climatology

Humid Continental climate (Köppen climate classification Dfb) - Variable weather patterns and a large seasonal temperature variance. Summers are often warm and humid with frequent thunderstorms and winters can be very cold with frequent snowfall and persistent snow cover.

Runways

Designator Length Width Surface Rops
7/25 1890 46 ASP Yes/Yes
10/28 2438 61 ASP Yes/Yes
16/34 3863 61 ASP Yes/Yes
Airport map: 
Aerial View: 

Accidents and Serious Incidents at or in the vicinity of CYYC

SKYbrary Partners:

Safety knowledge contributed by: